Location: Milevsko
(49.4500°N, 14.3670°E)
Time: 01:42:46
(UTC+01:00)

ISS - Pass Details

Date: 16 July 2018
Orbit: 401 x 408 km, 51.6° (Epoch: 20 November)

Event Time Altitude Azimuth Distance (km) Brightness Sun altitude
Exits shadow 01:06:23 52° 103° (ESE) 524 -3.5 -19.1°
Drops below altitude 10° 01:09:07 10° 74° (ENE) 1,494 -0.8 -19.1°
Enters shadow 02:14:36 -51° 260° (W) 10,350 3.3 -17.6°
Maximum altitude 02:42:29 58° 355° (N) 491 -3.2 -16.1°
